Weather in Memphis

United States     35°08′53″N   90°02′35″W
temp.,
°C
wind,
m/s
gust,
m/s
humid.,
%
clouds,
%
prec.,
mm/h
press.,
hPa
HPBL,
m
25 may, wed
wed2501:00+20se41192100 4.8 1010320
04:00+20sse51496100 2.7 1011682
07:00+20sse61692100 3.9 10121027
10:00+21sse61390100 1.1 1011943
13:00+21sse71594100 7.6 10101052
16:00+24s7138347 1.5 10091111
19:00+23sse61282100 2.6 1008871
22:00+21sse61591100 0.8 1009640
26 may, thu
thu2601:00+20s51294100 1.4 1009560
04:00+18ssw489197 0.4 1009407
07:00+16ssw4108439 0.4 1011805
10:00+19ssw69640 0.0 10101021
13:00+20sw71064100 0.1 10101584
16:00+17wsw5117917 0.7 10091098
19:00+17sw5117251 0.7 1009952
22:00+15wsw5118114 0.0 1011710
27 may, fri
fri2701:00+14wsw51184100 0.0 1010577
04:00+14sw41084100 0.0 1010460
07:00+15wsw498571 0.0 1012439
10:00+19w567395 0.0 1013998
13:00+21wnw4765100 0.1 10131315
16:00+23wnw5662100 0.0 10131417
19:00+21nne23730 0.0 1013350
22:00+18e22860 0.0 101436
28 may, sat
sat2801:00+17e11860 0.0 101311
04:00+16ene11870 0.0 101415
07:00+16e23850 0.0 101597
10:00+22sse22640 0.0 1015763
13:00+26sw22480 0.0 10141394
16:00+28ssw32421 0.0 10121376
19:00+26s345846 0.0 1011303
22:00+22sse3669100 0.0 1011133
29 may, sun
sun2901:00+20sse397181 0.0 1011215
04:00+20sse411755 0.0 1011258
07:00+20sse413740 0.0 1012345
10:00+26s610595 0.0 1013592
13:00+30s57525 0.0 10131147
16:00+31s56515 0.0 10111356
19:00+29s37635 0.0 1011508
22:00+25sse512590 0.0 1013397